Torna al catalogo

TURKSAT 5A

AttivoComunicazioniGEO
NORAD 47306·PAYLOAD·🇹🇷 Turkey

Lanciato Jan 8, 2021 da Cape Canaveral Space Force Station

Loading…

TLE

AggiornatoSource: Space-Track

Epoca: Sep 14, 2026, 13:57 UTC

1 47306U 21001A   26257.58125437  .00000146  00000-0  00000-0 0  9992
2 47306   0.0129 113.6802 0000215 308.5548 171.5044  1.00271818 20862

Traccia TURKSAT 5A in tempo reale con AllMySat

Download on the App Store